Rensselaer, IN

12:27 PM CDT on March 27, 2017 (GMT -0500)
Jasper County

Weather History for KRZL - December, 2012

Change the Weather History Date:

Tuesday, December 4, 2012

  Actual Average (KIKK) Record (KIKK)
Temperature  
Mean Temperature 50 °F -  
Max Temperature 62 °F 39 °F 63 °F (1973)
Min Temperature 37 °F 23 °F -3 °F (1991)
Degree Days  
Heating Degree Days 16    
Moisture  
Dew Point 43 °F    
Average Humidity 79    
Maximum Humidity 100    
Minimum Humidity 47    
Precipitation  
Precipitation 0.33 in - - ()
Sea Level Pressure  
Sea Level Pressure 30.10 in    
Wind  
Wind Speed 10 mph (West)    
Max Wind Speed 17 mph    
Max Gust Speed 24 mph    
Visibility 9 miles    
Events Rain    
Averages and records for this station are not official NWS values.
T = Trace of Precipitation, MM = Missing Value Source: NWS Daily Summary

Daily Weather History Graph

Daily Weather History Graph

Search for Another Location

Airport or City:

Trip Planner

Search our weather history database for the weather conditions in past years. The results will help you decide how hot, cold, wet, or windy it might be!

Date:

Astronomy

Dec. 04, 2012 Rise Set
Actual Time 6:57 AM CST 4:20 PM CST
Civil Twilight 6:26 AM CST 4:51 PM CST
Nautical Twilight 5:52 AM CST 5:25 PM CST
Astronomical Twilight 5:19 AM CST 5:58 PM CST
Moon 10:09 PM CST (12/4) 10:50 AM CST (12/4)
Length of Visible Light 10h 24m
Length of Day
9h 23m
Waning Gibbous, 69% of the Moon is Illuminated
Dec 4
Waning Gibbous
Dec 6
Last Quarter
Dec 13
New
Dec 19
First Quarter
Dec 28
Full

Hourly Weather History & Observations

Time (CST) Temp. Windchill Dew Point Humidity Pressure Visibility Wind Dir Wind Speed Gust Speed Precip Events Conditions
12:15 AM 62.6 °F - 55.4 °F 77% 29.93 in 10.0 mi SSW 17.3 mph 24.2 mph N/A   Mostly Cloudy
12:35 AM 62.6 °F - 55.4 °F 77% 29.92 in 10.0 mi SSW 15.0 mph 21.9 mph N/A   Overcast
12:55 AM 62.6 °F - 55.4 °F 77% 29.93 in 10.0 mi SSW 17.3 mph 24.2 mph N/A   Overcast
1:15 AM 60.8 °F - 55.4 °F 82% 29.93 in 10.0 mi SSW 17.3 mph 21.9 mph N/A Rain Light Rain
1:35 AM 60.8 °F - 55.4 °F 82% 29.93 in 10.0 mi SSW 15.0 mph 21.9 mph N/A   Overcast
1:55 AM 60.8 °F - 55.4 °F 82% 29.94 in 10.0 mi SW 15.0 mph - N/A   Overcast
2:15 AM 60.8 °F - 55.4 °F 82% 29.94 in 10.0 mi SW 15.0 mph 20.7 mph N/A   Overcast
2:35 AM 60.8 °F - 55.4 °F 82% 29.94 in 10.0 mi SW 13.8 mph - N/A   Overcast
2:55 AM 60.8 °F - 55.4 °F 82% 29.94 in 10.0 mi SW 10.4 mph 17.3 mph N/A Rain Light Rain
3:15 AM 60.8 °F - 55.4 °F 82% 29.94 in 7.0 mi SW 13.8 mph 19.6 mph N/A   Overcast
3:35 AM 55.4 °F - 53.6 °F 94% 29.95 in 4.0 mi WNW 6.9 mph - N/A   Overcast
3:55 AM 55.4 °F - 53.6 °F 94% 29.96 in 2.5 mi WNW 6.9 mph - 0.01 in Rain Heavy Rain
4:15 AM 53.6 °F - 53.6 °F 100% 29.97 in 3.0 mi NW 11.5 mph - 0.01 in Rain Rain
4:35 AM 53.6 °F - 53.6 °F 100% 29.99 in 3.0 mi NW 8.1 mph - 0.02 in Rain Light Rain
4:55 AM 53.6 °F - 51.8 °F 94% 30.00 in 2.5 mi NW 8.1 mph - 0.03 in Rain Rain
5:15 AM 50.0 °F - 46.4 °F 87% 30.01 in 5.0 mi North 15.0 mph 19.6 mph 0.01 in Rain Rain
5:35 AM 48.2 °F - 46.4 °F 93% 30.02 in 7.0 mi North 11.5 mph - 0.02 in Rain Rain
5:55 AM 48.2 °F - 46.4 °F 93% 30.04 in 10.0 mi North 13.8 mph 18.4 mph 0.03 in Rain Light Rain
6:15 AM 46.4 °F 41.1 °F 44.6 °F 93% 30.05 in 10.0 mi North 11.5 mph - 0.01 in Rain Light Rain
6:35 AM 46.4 °F 40.1 °F 42.8 °F 87% 30.05 in 10.0 mi North 15.0 mph 19.6 mph 0.02 in Rain Rain
6:55 AM 46.4 °F 43.5 °F 42.8 °F 87% 30.06 in 7.0 mi North 5.8 mph - 0.03 in Rain Rain
7:15 AM 46.4 °F 42.9 °F 44.6 °F 93% 30.06 in 10.0 mi NNE 6.9 mph - 0.01 in Rain Light Rain
7:35 AM 46.4 °F 43.5 °F 44.6 °F 93% 30.06 in 10.0 mi NE 5.8 mph - 0.02 in Rain Light Rain
7:55 AM 46.4 °F - 44.6 °F 93% 30.08 in 10.0 mi Calm Calm - 0.03 in   Light Drizzle
8:15 AM 46.4 °F - 44.6 °F 93% 30.09 in 10.0 mi Calm Calm - N/A Rain Light Rain
8:35 AM 46.4 °F - 44.6 °F 93% 30.09 in 10.0 mi Calm Calm - 0.01 in   Mostly Cloudy
8:55 AM 46.4 °F - 44.6 °F 93% 30.10 in 10.0 mi Calm Calm - 0.02 in   Overcast
9:15 AM 48.2 °F - 44.6 °F 87% 30.11 in 10.0 mi Calm Calm - N/A   Overcast
9:55 AM 48.2 °F - 44.6 °F 87% 30.11 in 10.0 mi Calm Calm - 0.02 in   Mostly Cloudy
10:15 AM 50.0 °F - 44.6 °F 82% 30.11 in 10.0 mi Calm Calm - 0.01 in   Mostly Cloudy
10:35 AM 50.0 °F - 44.6 °F 82% 30.11 in 10.0 mi Calm Calm - 0.01 in   Mostly Cloudy
10:55 AM 50.0 °F - 44.6 °F 82% 30.11 in 10.0 mi WSW 5.8 mph - 0.02 in   Mostly Cloudy
11:15 AM 51.8 °F - 44.6 °F 76% 30.11 in 10.0 mi WSW 6.9 mph - 0.01 in   Mostly Cloudy
11:35 AM 51.8 °F - 44.6 °F 76% 30.11 in 10.0 mi West 8.1 mph - 0.01 in   Overcast
11:55 AM 51.8 °F - 44.6 °F 76% 30.11 in 10.0 mi West 8.1 mph - 0.02 in   Overcast
12:15 PM 53.6 °F - 42.8 °F 67% 30.10 in 10.0 mi WNW 6.9 mph - N/A   Mostly Cloudy
12:35 PM 53.6 °F - 39.2 °F 58% 30.10 in 10.0 mi West 10.4 mph - 0.01 in   Scattered Clouds
12:55 PM 53.6 °F - 41.0 °F 62% 30.10 in 10.0 mi West 9.2 mph - 0.01 in   Clear
1:15 PM 53.6 °F - 41.0 °F 62% 30.09 in 10.0 mi WNW 8.1 mph - N/A   Scattered Clouds
1:35 PM 53.6 °F - 41.0 °F 62% 30.10 in 10.0 mi WNW 5.8 mph - 0.01 in   Scattered Clouds
1:55 PM 53.6 °F - 41.0 °F 62% 30.09 in 10.0 mi WNW 9.2 mph - 0.01 in   Clear
2:15 PM 53.6 °F - 35.6 °F 51% 30.10 in 10.0 mi West 8.1 mph - 0.01 in   Clear
2:35 PM 53.6 °F - 33.8 °F 47% 30.11 in 10.0 mi WNW 6.9 mph - 0.01 in   Clear
2:55 PM 53.6 °F - 35.6 °F 51% 30.11 in 10.0 mi WNW 4.6 mph - 0.02 in   Clear
3:15 PM 53.6 °F - 33.8 °F 47% 30.13 in 10.0 mi WNW 4.6 mph - N/A   Clear
3:35 PM 51.8 °F - 35.6 °F 54% 30.14 in 10.0 mi West 5.8 mph - N/A   Clear
3:55 PM 50.0 °F - 35.6 °F 58% 30.14 in 10.0 mi West 4.6 mph - 0.01 in   Clear
4:15 PM 48.2 °F - 35.6 °F 62% 30.15 in 10.0 mi WSW 4.6 mph - N/A   Clear
4:35 PM 48.2 °F - 35.6 °F 62% 30.15 in 10.0 mi SW 4.6 mph - 0.01 in   Clear
4:55 PM 46.4 °F 44.3 °F 35.6 °F 66% 30.15 in 10.0 mi WSW 4.6 mph - 0.01 in   Clear
5:15 PM 46.4 °F 43.5 °F 35.6 °F 66% 30.16 in 10.0 mi WSW 5.8 mph - N/A   Clear
5:35 PM 44.6 °F 41.4 °F 37.4 °F 76% 30.16 in 10.0 mi SW 5.8 mph - 0.01 in   Clear
5:55 PM 44.6 °F 40.7 °F 37.4 °F 76% 30.17 in 10.0 mi SW 6.9 mph - 0.01 in   Clear
6:15 PM 44.6 °F 40.2 °F 37.4 °F 76% 30.17 in 10.0 mi WSW 8.1 mph - 0.01 in   Clear
6:35 PM 42.8 °F 39.3 °F 37.4 °F 81% 30.17 in 10.0 mi WSW 5.8 mph - 0.01 in   Clear
6:55 PM 42.8 °F 39.3 °F 37.4 °F 81% 30.18 in 10.0 mi WSW 5.8 mph - 0.01 in   Clear
7:15 PM 42.8 °F 40.1 °F 37.4 °F 81% 30.18 in 10.0 mi WSW 4.6 mph - N/A   Clear
7:35 PM 41.0 °F 37.1 °F 37.4 °F 87% 30.18 in 10.0 mi WSW 5.8 mph - 0.01 in   Clear
7:55 PM 41.0 °F 36.4 °F 37.4 °F 87% 30.19 in 10.0 mi SW 6.9 mph - 0.01 in   Clear
8:15 PM 41.0 °F 37.1 °F 35.6 °F 81% 30.19 in 10.0 mi WSW 5.8 mph - N/A   Clear
8:35 PM 39.2 °F 35.0 °F 35.6 °F 87% 30.19 in 10.0 mi WSW 5.8 mph - 0.01 in   Clear
8:55 PM 37.4 °F 33.8 °F 35.6 °F 93% 30.20 in 10.0 mi WSW 4.6 mph - 0.01 in   Clear
9:15 PM 39.2 °F 37.0 °F 35.6 °F 87% 30.21 in 10.0 mi WSW 3.5 mph - N/A   Clear
9:35 PM 37.4 °F - 35.6 °F 93% 30.21 in 10.0 mi Calm Calm - N/A   Clear
9:55 PM 39.2 °F 35.0 °F 35.6 °F 87% 30.22 in 10.0 mi SW 5.8 mph - N/A   Clear
10:15 PM 39.2 °F 35.9 °F 35.6 °F 87% 30.23 in 10.0 mi West 4.6 mph - N/A   Clear
10:35 PM 37.4 °F 34.9 °F 33.8 °F 87% 30.23 in 10.0 mi West 3.5 mph - 0.01 in   Clear
10:55 PM 37.4 °F 32.1 °F 33.8 °F 87% 30.24 in 10.0 mi WNW 6.9 mph - 0.01 in   Clear
11:15 PM 41.0 °F 37.1 °F 33.8 °F 76% 30.24 in 10.0 mi West 5.8 mph - N/A   Clear
11:35 PM 39.2 °F 35.9 °F 32.0 °F 75% 30.25 in 10.0 mi West 4.6 mph - N/A   Clear
11:55 PM 37.4 °F 33.8 °F 32.0 °F 81% 30.26 in 10.0 mi West 4.6 mph - 0.01 in   Clear